Flag for Norway Weather past 2 weeks in Tananger, Norway

Now
50 °F

Partly sunny.


Feels Like: 45 °F
Forecast: 48 / 55 °F
Wind: 13 mph from North

Location: Stavanger / Sola

Current Time: Oct 22, 2014 at 2:19:54 PM

Latest Report: Oct 22, 2014 at 1:50 PM


Visibility: N/A

Pressure: 29.89 "Hg

Humidity: 82%

Dew point: 45 °F

Location of TanangerLocation

Historic Weather in Tananger — Graph

°F

Tananger temperature yesterday

Maximum temperature yesterday: 57 °F (at 3:20 PM)
Minimum temperature yesterday: 48 °F (at 12:20 AM)
Average temperature yesterday: 54 °F

Past Weeks' High & Low Weather Summary

 TemperatureHumidityPressure
High59 °F (Oct 9, 2:50 PM)100% (Oct 12, 6:20 AM)29.98 "Hg (Oct 12, 6:20 AM)
Low34 °F (Oct 17, 4:50 AM)47% (Oct 7, 12:20 PM)29.15 "Hg (Oct 8, 5:50 AM)
Average51 °F82%29.65 "Hg
* Reported Oct 7 12:20 PM — Oct 22 12:50 PM, Tananger, Weather by CustomWeather, © 2014

Note: Actual official high and low records may vary slightly from our data, if they occured in-between our weather recording intervals... More about our weather records

Advertising

Tananger weather history for previous 24 hours

 ConditionsComfort  
Time TempWeatherWind HumidityBarometerVisibility
12:50 PM
Oct 22
50 °FBroken clouds.13 mph82%29.86 "HgN/A
12:20 PM48 °FLight rain. Partly sunny.9 mph87%29.86 "HgN/A
11:50 AM48 °FLight rain. Partly sunny.10 mph82%29.86 "HgN/A
11:20 AM48 °FLight rain. Partly sunny.14 mph82%29.83 "HgN/A
10:50 AM48 °FPartly sunny.14 mph82%29.83 "HgN/A
10:20 AM48 °FPartly sunny.13 mph82%29.80 "HgN/A
9:50 AM48 °FBroken clouds.17 mph87%29.80 "HgN/A
9:20 AM48 °FPartly cloudy.18 mph82%29.77 "HgN/A
8:50 AM48 °FPartly cloudy.20 mph82%29.74 "HgN/A
8:20 AM48 °FLight rain. Partly cloudy.23 mph87%29.74 "HgN/A
7:50 AM48 °FPartly cloudy.22 mph87%29.71 "HgN/A
7:20 AM48 °FPassing clouds.24 mph87%29.68 "HgN/A
6:50 AM48 °FLight rain. Partly cloudy.23 mph87%29.65 "HgN/A
6:20 AM48 °FLight rain. Partly cloudy.22 mph87%29.65 "HgN/A
5:50 AM48 °FLight rain. Partly cloudy.28 mph87%29.62 "HgN/A
4:50 AM50 °FLight rain. Partly cloudy.31 mph88%29.56 "HgN/A
3:50 AM50 °FRain. Passing clouds.29 mph94%29.50 "Hg5 mi
2:50 AM52 °FLight rain. Partly cloudy.25 mph94%29.45 "HgN/A
1:50 AM54 °FPartly cloudy.18 mph94%29.42 "HgN/A
12:50 AM55 °FPassing clouds.8 mph88%29.36 "HgN/A
12:20 AM55 °FPassing clouds.7 mph88%29.33 "HgN/A
11:50 PM
Oct 21
55 °FPartly cloudy.5 mph77%29.30 "HgN/A
11:20 PM57 °FPassing clouds.7 mph72%29.27 "HgN/A
10:50 PM57 °FPassing clouds.9 mph72%29.24 "HgN/A
10:20 PM57 °FPassing clouds.14 mph72%29.24 "HgN/A
9:50 PM57 °FPassing clouds.12 mph72%29.21 "HgN/A
9:20 PM57 °FPassing clouds.9 mph67%29.21 "HgN/A
8:50 PM55 °FLight rain. Partly cloudy.9 mph72%29.18 "HgN/A
8:20 PM55 °FLight rain. Passing clouds.10 mph77%29.18 "HgN/A
7:50 PM57 °FPassing clouds.16 mph67%29.18 "HgN/A
7:20 PM57 °FPartly cloudy.12 mph67%29.15 "HgN/A
6:50 PM55 °FBroken clouds.14 mph72%29.15 "HgN/A
6:20 PM55 °FBroken clouds.14 mph77%29.15 "HgN/A
5:50 PM55 °FPartly sunny.14 mph77%29.15 "HgN/A
5:20 PM55 °FPartly sunny.15 mph77%29.15 "HgN/A
4:50 PM55 °FBroken clouds.14 mph77%29.15 "HgN/A
4:20 PM55 °FLight rain. Broken clouds.15 mph82%29.15 "HgN/A
3:50 PM55 °FLight rain. Broken clouds.16 mph77%29.18 "HgN/A
3:20 PM57 °FLight rain. Scattered clouds.20 mph72%29.18 "HgN/A
2:50 PM55 °FScattered clouds.21 mph77%29.18 "HgN/A
2:20 PM55 °FLight rain. Broken clouds.22 mph77%29.18 "HgN/A
Weather by CustomWeather, © 2014

See weather overviewHow to use our weather pages